| time (UTC) | temp F | wind direction | speed knots | gust knots | rain 1hr in | rain 24hr in | rain mn in | humidity % | barometer mb |
| 20260510231607 | 56 | 180 | 2.6 | 7.0 | 0.00 | 0.13 | 0.03 | 74 | 1010.5 |
| 20260510230606 | 57 | 203 | 2.6 | 6.1 | 0.00 | 0.13 | 0.03 | 75 | 1010.4 |
| 20260510225606 | 58 | 175 | 2.6 | 6.1 | 0.00 | 0.13 | 0.03 | 76 | 1010.4 |
| 20260510224606 | 59 | 240 | 1.7 | 8.7 | 0.00 | 0.13 | 0.03 | 76 | 1010.1 |
| 20260510223606 | 59 | 117 | 2.6 | 8.7 | 0.00 | 0.13 | 0.03 | 76 | 1009.9 |
| 20260510222606 | 59 | 208 | 4.3 | 7.8 | 0.00 | 0.13 | 0.03 | 76 | 1009.9 |
| 20260510221606 | 60 | 180 | 2.6 | 7.8 | 0.00 | 0.13 | 0.03 | 76 | 1009.8 |
| 20260510220602 | 59 | 172 | 3.5 | 9.6 | 0.00 | 0.13 | 0.03 | 76 | 1009.7 |
| 20260510215602 | 60 | 223 | 3.5 | 9.6 | 0.00 | 0.14 | 0.03 | 75 | 1009.7 |
| 20260510214602 | 60 | 210 | 4.3 | 9.6 | 0.00 | 0.14 | 0.03 | 75 | 1009.9 |
| 20260510213603 | 59 | 183 | 3.5 | 11.3 | 0.00 | 0.15 | 0.03 | 74 | 1009.8 |
| 20260510213043 | 58 | 123 | 3.5 | 7.0 | 0.00 | 0.16 | 0.03 | 74 | 1009.8 |
| 20260510212041 | 58 | 181 | 2.6 | 7.0 | 0.00 | 0.17 | 0.03 | 75 | 1009.8 |
| 20260510210601 | 59 | 134 | 1.7 | 5.2 | 0.00 | 0.18 | 0.03 | 77 | 1009.8 |
| 20260510205601 | 59 | 153 | 2.6 | 6.1 | 0.00 | 0.19 | 0.03 | 77 | 1009.8 |
| 20260510204601 | 60 | 279 | 2.6 | 5.2 | 0.00 | 0.20 | 0.03 | 76 | 1009.8 |
| 20260510203600 | 60 | 154 | 2.6 | 7.8 | 0.00 | 0.20 | 0.03 | 76 | 1009.7 |
| 20260510202601 | 61 | 209 | 1.7 | 7.0 | 0.00 | 0.21 | 0.03 | 76 | 1009.8 |
| 20260510201601 | 62 | 218 | 3.5 | 7.0 | 0.00 | 0.21 | 0.03 | 73 | 1009.6 |
| 20260510200600 | 63 | 245 | 4.3 | 9.6 | 0.00 | 0.21 | 0.03 | 69 | 1009.8 |
| 20260510195602 | 64 | 254 | 3.5 | 9.6 | 0.00 | 0.22 | 0.03 | 70 | 1009.7 |
| 20260510194601 | 64 | 226 | 4.3 | 8.7 | 0.00 | 0.22 | 0.03 | 68 | 1009.6 |
| 20260510193601 | 64 | 230 | 4.3 | 10.4 | 0.00 | 0.22 | 0.03 | 69 | 1009.4 |
| 20260510192601 | 63 | 240 | 3.5 | 6.1 | 0.00 | 0.22 | 0.03 | 70 | 1009.5 |
| 20260510191601 | 63 | 188 | 3.5 | 10.4 | 0.00 | 0.23 | 0.03 | 71 | 1009.6 |
| 20260510190601 | 63 | 317 | 3.5 | 10.4 | 0.00 | 0.23 | 0.03 | 71 | 1009.8 |
| 20260510185601 | 63 | 280 | 4.3 | 9.6 | 0.01 | 0.23 | 0.03 | 73 | 1009.8 |
| 20260510184601 | 63 | 203 | 2.6 | 8.7 | 0.01 | 0.23 | 0.03 | 74 | 1010.0 |
| 20260510183601 | 63 | 176 | 3.5 | 8.7 | 0.01 | 0.23 | 0.03 | 74 | 1010.0 |
| 20260510182601 | 62 | 239 | 4.3 | 9.6 | 0.01 | 0.23 | 0.03 | 74 | 1010.2 |
| 20260510182039 | 62 | 246 | 4.3 | 9.6 | 0.01 | 0.23 | 0.03 | 74 | 1010.3 |
| 20260510180601 | 62 | 221 | 3.5 | 8.7 | 0.01 | 0.23 | 0.03 | 76 | 1010.2 |
| 20260510175601 | 62 | 194 | 3.5 | 7.0 | 0.00 | 0.22 | 0.02 | 76 | 1010.4 |
| 20260510174601 | 62 | 168 | 2.6 | 8.7 | 0.00 | 0.22 | 0.02 | 76 | 1010.3 |
| 20260510173601 | 62 | 125 | 3.5 | 8.7 | 0.00 | 0.22 | 0.02 | 76 | 1010.3 |
| 20260510173035 | 62 | 111 | 3.5 | 7.8 | 0.00 | 0.22 | 0.02 | 76 | 1010.4 |
| 20260510172532 | 61 | 163 | 2.6 | 7.8 | 0.00 | 0.22 | 0.02 | 76 | 1010.5 |
| 20260510170601 | 60 | 216 | 3.5 | 7.8 | 0.00 | 0.22 | 0.02 | 76 | 1010.6 |
| 20260510165601 | 60 | 277 | 3.5 | 7.0 | 0.00 | 0.22 | 0.02 | 76 | 1010.7 |
| 20260510164601 | 58 | 260 | 2.6 | 7.8 | 0.00 | 0.22 | 0.02 | 75 | 1010.5 |
| 20260510163601 | 58 | 238 | 3.5 | 7.8 | 0.00 | 0.22 | 0.02 | 74 | 1010.6 |
| 20260510163038 | 56 | 196 | 3.5 | 7.0 | 0.00 | 0.22 | 0.02 | 72 | 1010.7 |
| 20260510161601 | 55 | 213 | 3.5 | 7.8 | 0.00 | 0.22 | 0.02 | 70 | 1010.9 |
| 20260510160601 | 55 | 233 | 3.5 | 7.8 | 0.00 | 0.22 | 0.02 | 70 | 1011.2 |
| 20260510155600 | 55 | 142 | 2.6 | 7.0 | 0.00 | 0.22 | 0.02 | 67 | 1011.2 |
| 20260510154601 | 54 | 213 | 1.7 | 6.1 | 0.00 | 0.22 | 0.02 | 64 | 1011.2 |
| 20260510153600 | 53 | 220 | 1.7 | 5.2 | 0.00 | 0.22 | 0.02 | 64 | 1011.3 |
| 20260510152600 | 53 | 182 | 1.7 | 4.3 | 0.00 | 0.22 | 0.02 | 61 | 1011.3 |
| 20260510151601 | 53 | 205 | 2.6 | 6.1 | 0.00 | 0.22 | 0.02 | 60 | 1011.4 |
| 20260510150559 | 53 | 229 | 3.5 | 7.0 | 0.00 | 0.22 | 0.02 | 59 | 1011.4 |
| 20260510145558 | 53 | 139 | 3.5 | 8.7 | 0.00 | 0.22 | 0.02 | 59 | 1011.4 |
| 20260510144558 | 53 | 175 | 3.5 | 8.7 | 0.00 | 0.22 | 0.02 | 58 | 1011.6 |
| 20260510143558 | 53 | 162 | 3.5 | 8.7 | 0.00 | 0.22 | 0.02 | 57 | 1011.5 |
| 20260510142558 | 53 | 258 | 3.5 | 8.7 | 0.00 | 0.22 | 0.02 | 56 | 1011.5 |
| 20260510141558 | 53 | 294 | 3.5 | 8.7 | 0.00 | 0.22 | 0.02 | 56 | 1011.4 |
| 20260510140558 | 53 | 237 | 3.5 | 7.8 | 0.00 | 0.22 | 0.02 | 56 | 1011.2 |
| 20260510135558 | 53 | 148 | 2.6 | 8.7 | 0.00 | 0.22 | 0.02 | 56 | 1011.1 |
| 20260510134558 | 52 | 179 | 3.5 | 8.7 | 0.00 | 0.22 | 0.02 | 56 | 1011.2 |
| 20260510133556 | 52 | 172 | 3.5 | 7.8 | 0.00 | 0.22 | 0.02 | 56 | 1011.2 |
| 20260510132556 | 52 | 192 | 3.5 | 7.8 | 0.00 | 0.22 | 0.02 | 57 | 1011.2 |
| 20260510131556 | 51 | 188 | 2.6 | 7.0 | 0.00 | 0.22 | 0.02 | 57 | 1011.3 |
| 20260510131034 | 51 | 203 | 3.5 | 7.0 | 0.00 | 0.22 | 0.02 | 57 | 1011.3 |
| 20260510125556 | 51 | 169 | 2.6 | 6.1 | 0.00 | 0.22 | 0.02 | 57 | 1011.2 |
| 20260510124557 | 51 | 186 | 1.7 | 6.1 | 0.00 | 0.22 | 0.02 | 57 | 1011.3 |
| 20260510123556 | 50 | 223 | 1.7 | 6.1 | 0.00 | 0.22 | 0.02 | 58 | 1011.4 |
| 20260510122554 | 50 | 178 | 2.6 | 6.1 | 0.00 | 0.22 | 0.02 | 57 | 1011.1 |
| 20260510121555 | 50 | 242 | 2.6 | 5.2 | 0.00 | 0.22 | 0.02 | 58 | 1011.2 |
| 20260510120554 | 50 | 224 | 2.6 | 5.2 | 0.00 | 0.22 | 0.02 | 58 | 1011.2 |
| 20260510115554 | 50 | 224 | 2.6 | 7.0 | 0.00 | 0.22 | 0.02 | 58 | 1011.1 |
| 20260510114554 | 49 | 242 | 3.5 | 7.8 | 0.00 | 0.22 | 0.02 | 58 | 1011.2 |
| 20260510113554 | 49 | 205 | 2.6 | 7.8 | 0.00 | 0.22 | 0.02 | 58 | 1010.8 |
| 20260510112554 | 49 | 202 | 2.6 | 5.2 | 0.00 | 0.22 | 0.02 | 58 | 1010.3 |
| 20260510111554 | 49 | 172 | 2.6 | 6.1 | 0.00 | 0.22 | 0.02 | 58 | 1010.0 |
| 20260510110745 | 49 | 171 | 1.7 | 5.2 | 0.00 | 0.22 | 0.02 | 58 | 1010.2 |
| 20260510104548 | 49 | 154 | 1.7 | 4.3 | 0.00 | 0.22 | 0.02 | 58 | 1010.0 |
| 20260510103548 | 49 | 93 | 1.7 | 5.2 | 0.00 | 0.22 | 0.02 | 58 | 1010.1 |
| 20260510102548 | 49 | 232 | 0.9 | 2.6 | 0.00 | 0.22 | 0.02 | 58 | 1010.2 |
| 20260510101548 | 49 | 113 | 0.9 | 2.6 | 0.01 | 0.22 | 0.02 | 58 | 1010.0 |
| 20260510100547 | 49 | 169 | 0.9 | 2.6 | 0.01 | 0.22 | 0.02 | 58 | 1010.2 |
| 20260510095548 | 49 | 149 | 0.0 | 1.7 | 0.01 | 0.22 | 0.02 | 58 | 1010.3 |
| 20260510094548 | 49 | 163 | 0.0 | 1.7 | 0.01 | 0.22 | 0.02 | 58 | 1010.3 |
| 20260510093548 | 49 | 188 | 0.0 | 1.7 | 0.01 | 0.22 | 0.02 | 58 | 1010.3 |
| 20260510092547 | 49 | 182 | 0.9 | 4.3 | 0.01 | 0.22 | 0.02 | 58 | 1010.2 |
| 20260510091542 | 49 | 180 | 1.7 | 4.3 | 0.00 | 0.21 | 0.01 | 58 | 1010.3 |
| 20260510090542 | 49 | 155 | 1.7 | 4.3 | 0.00 | 0.21 | 0.01 | 58 | 1010.2 |
| 20260510085541 | 49 | 170 | 1.7 | 4.3 | 0.00 | 0.21 | 0.01 | 58 | 1010.2 |
| 20260510084542 | 49 | 205 | 1.7 | 3.5 | 0.00 | 0.21 | 0.01 | 58 | 1010.6 |
| 20260510083543 | 49 | 178 | 0.9 | 4.3 | 0.00 | 0.21 | 0.01 | 58 | 1010.5 |
| 20260510082542 | 49 | 221 | 0.9 | 3.5 | 0.00 | 0.21 | 0.01 | 58 | 1010.5 |
| 20260510081540 | 49 | 146 | 0.9 | 3.5 | 0.00 | 0.21 | 0.01 | 58 | 1010.3 |
| 20260510080540 | 49 | 209 | 0.9 | 4.3 | 0.00 | 0.21 | 0.01 | 58 | 1010.3 |
| 20260510080029 | 49 | 153 | 1.7 | 5.2 | 0.00 | 0.21 | 0.01 | 58 | 1010.2 |
| 20260510074534 | 49 | 161 | 1.7 | 6.1 | 0.00 | 0.21 | 0.01 | 58 | 1010.2 |
| 20260510073534 | 49 | 94 | 1.7 | 3.5 | 0.00 | 0.21 | 0.01 | 58 | 1010.5 |
| 20260510072533 | 49 | 205 | 1.7 | 5.2 | 0.00 | 0.21 | 0.01 | 58 | 1010.7 |
| 20260510072012 | 49 | 218 | 1.7 | 5.2 | 0.00 | 0.21 | 0.01 | 58 | 1010.7 |
| 20260510070532 | 48 | 218 | 1.7 | 5.2 | 0.00 | 0.21 | 0.01 | 58 | 1010.8 |
| 20260510065532 | 48 | 215 | 2.6 | 7.0 | 0.00 | 0.21 | 0.01 | 58 | 1010.9 |
| 20260510064532 | 48 | 206 | 2.6 | 7.0 | 0.00 | 0.21 | 0.01 | 58 | 1010.9 |
| 20260510063530 | 48 | 170 | 2.6 | 7.0 | 0.00 | 0.21 | 0.01 | 59 | 1011.1 |
| 20260510062529 | 48 | 181 | 3.5 | 7.0 | 0.00 | 0.21 | 0.01 | 59 | 1011.1 |
| 20260510062019 | 48 | 171 | 3.5 | 7.8 | 0.00 | 0.21 | 0.01 | 59 | 1011.1 |
| 20260510060528 | 47 | 178 | 3.5 | 7.0 | 0.00 | 0.21 | 0.01 | 59 | 1011.1 |
| 20260510055530 | 47 | 225 | 2.6 | 7.0 | 0.00 | 0.21 | 0.01 | 59 | 1011.1 |
| 20260510054528 | 47 | 178 | 3.5 | 7.0 | 0.00 | 0.21 | 0.01 | 60 | 1011.1 |
| 20260510053529 | 47 | 203 | 3.5 | 7.0 | 0.00 | 0.21 | 0.01 | 60 | 1011.2 |
| 20260510052530 | 46 | 218 | 1.7 | 6.1 | 0.00 | 0.21 | 0.01 | 60 | 1011.1 |
| 20260510051529 | 46 | 205 | 1.7 | 6.1 | 0.01 | 0.21 | 0.01 | 61 | 1011.2 |
| 20260510051020 | 45 | 175 | 0.9 | 6.1 | 0.01 | 0.21 | 0.01 | 61 | 1011.2 |
| 20260510045529 | 44 | 115 | 0.9 | 2.6 | 0.01 | 0.21 | 0.01 | 61 | 1011.2 |
| 20260510044528 | 44 | 75 | 0.0 | 1.7 | 0.01 | 0.21 | 0.01 | 62 | 1011.3 |
| 20260510043529 | 44 | 75 | 0.0 | 1.7 | 0.01 | 0.21 | 0.01 | 62 | 1011.3 |
| 20260510042529 | 44 | 75 | 0.0 | 1.7 | 0.01 | 0.21 | 0.01 | 62 | 1011.6 |
| 20260510041529 | 44 | 75 | 0.0 | 2.6 | 0.00 | 0.20 | 0.00 | 62 | 1011.5 |
| 20260510040529 | 44 | 75 | 0.9 | 2.6 | 0.00 | 0.20 | 0.00 | 62 | 1011.5 |
| 20260510035529 | 44 | 145 | 0.0 | 2.6 | 0.00 | 0.20 | 0.20 | 63 | 1011.6 |
| 20260510034529 | 44 | 137 | 0.0 | 1.7 | 0.00 | 0.20 | 0.20 | 63 | 1011.7 |
| 20260510034003 | 43 | 78 | 0.0 | 0.0 | 0.00 | 0.20 | 0.20 | 63 | 1011.9 |
| 20260510032529 | 43 | 78 | 0.0 | 0.0 | 0.00 | 0.20 | 0.20 | 63 | 1012.0 |
| 20260510031530 | 43 | 78 | 0.0 | 0.0 | 0.00 | 0.20 | 0.20 | 63 | 1012.2 |
| 20260510030528 | 43 | 78 | 0.0 | 0.0 | 0.00 | 0.20 | 0.20 | 63 | 1012.2 |
| 20260510025529 | 43 | 78 | 0.0 | 0.9 | 0.00 | 0.20 | 0.20 | 63 | 1012.1 |
| 20260510024529 | 43 | 78 | 0.0 | 2.6 | 0.00 | 0.20 | 0.20 | 64 | 1012.1 |
| 20260510023528 | 43 | 82 | 0.0 | 2.6 | 0.00 | 0.20 | 0.20 | 64 | 1012.1 |
| 20260510023013 | 43 | 55 | 0.0 | 2.6 | 0.00 | 0.20 | 0.20 | 64 | 1012.2 |
| 20260510021529 | 43 | 55 | 0.0 | 1.7 | 0.00 | 0.20 | 0.20 | 64 | 1012.4 |
| 20260510020529 | 43 | 55 | 0.0 | 3.5 | 0.00 | 0.20 | 0.20 | 64 | 1012.5 |
| 20260510015528 | 43 | 68 | 0.9 | 3.5 | 0.00 | 0.20 | 0.20 | 64 | 1012.4 |
| 20260510014529 | 43 | 53 | 1.7 | 4.3 | 0.01 | 0.20 | 0.20 | 65 | 1012.4 |
| 20260510014006 | 43 | 73 | 0.9 | 3.5 | 0.01 | 0.20 | 0.20 | 65 | 1012.5 |
| 20260510012528 | 43 | 78 | 1.7 | 7.0 | 0.03 | 0.20 | 0.20 | 65 | 1012.6 |
| 20260510011528 | 43 | 77 | 1.7 | 7.8 | 0.05 | 0.20 | 0.20 | 65 | 1012.6 |
| 20260510010529 | 43 | 79 | 2.6 | 7.8 | 0.07 | 0.20 | 0.20 | 65 | 1012.4 |
| 20260510005529 | 43 | 59 | 0.9 | 8.7 | 0.08 | 0.20 | 0.20 | 66 | 1012.6 |
| 20260510004528 | 43 | 80 | 2.6 | 8.7 | 0.08 | 0.19 | 0.19 | 66 | 1012.6 |
| 20260510003529 | 43 | 90 | 5.2 | 11.3 | 0.08 | 0.19 | 0.19 | 66 | 1012.5 |
| 20260510002528 | 43 | 110 | 4.3 | 10.4 | 0.07 | 0.17 | 0.16 | 66 | 1012.4 |
| 20260510001528 | 43 | 88 | 3.5 | 7.8 | 0.05 | 0.15 | 0.15 | 66 | 1012.4 |
| 20260510001010 | 43 | 121 | 3.5 | 8.7 | 0.03 | 0.13 | 0.13 | 67 | 1012.5 |
| 20260509235529 | 43 | 107 | 2.6 | 5.2 | 0.02 | 0.12 | 0.12 | 67 | 1012.4 |
| 20260509235445 | 43 | 101 | 2.6 | 4.3 | 0.01 | 0.11 | 0.11 | 67 | 1012.6 |
| 20260509233529 | 43 | 82 | 1.7 | 4.3 | 0.01 | 0.11 | 0.11 | 68 | 1012.7 |